Chillicothe, MO

12:44 AM CDT on October 21, 2019 (GMT -0500)
Chillicothe

Weather History for KCDJ - August, 2019

Change the Weather History Date:

Friday, August 9, 2019

  Actual Average (WUND) Record (WUND)
Temperature  
Mean Temperature 78 °F -  
Max Temperature 88 °F - - (-1)
Min Temperature 69 °F - - (-1)
Cooling Degree Days 13    
Growing Degree Days 28 (Base 50)    
Moisture  
Dew Point 67 °F    
Average Humidity 72    
Maximum Humidity 91    
Minimum Humidity 53    
Precipitation  
Precipitation 0.00 in - - ()
Sea Level Pressure  
Sea Level Pressure 29.95 in    
Wind  
Wind Speed 3 mph (ENE)    
Max Wind Speed 7 mph    
Max Gust Speed -    
Averages and records for this station are not official NWS values.
T = Trace of Precipitation, MM = Missing Value Source: NWS Daily Summary

Daily Weather History Graph

Daily Weather History Graph

Search for Another Location

Airport or City:

Astronomy

Aug. 09, 2019 Rise Set
Actual Time 6:20 AM CDT 8:18 PM CDT
Civil Twilight 5:50 AM CDT 8:48 PM CDT
Nautical Twilight 5:14 AM CDT 9:23 PM CDT
Astronomical Twilight 4:36 AM CDT 10:02 PM CDT
Moon 4:00 PM CDT (8/9) 1:18 AM CDT (8/9)
Length of Visible Light 14h 57m
Length of Day
13h 58m
Waxing Gibbous, 70% of the Moon is Illuminated
Aug 9
Waxing Gibbous
Aug 15
Full
Aug 23
Last Quarter
Aug 30
New
Sep 5
First Quarter

Hourly Weather History & Observations

Time (CDT) Temp. Heat Index Dew Point Humidity Pressure Visibility Wind Dir Wind Speed Gust Speed Precip Events Conditions
12:52 AM 75.0 °F - 72.0 °F 90% 29.92 in - Variable 3.5 mph - N/A   Unknown
1:52 AM 73.9 °F - 71.1 °F 91% 29.93 in - Calm Calm - N/A   Unknown
2:52 AM 75.0 °F - 70.0 °F 84% 29.92 in - NE 3.5 mph - N/A   Unknown
3:52 AM 73.0 °F - 68.0 °F 84% 29.92 in - NNE 5.8 mph - N/A   Unknown
4:52 AM 72.0 °F - 64.9 °F 78% 29.94 in - NE 5.8 mph - N/A   Unknown
5:52 AM 70.0 °F - 63.0 °F 78% 29.96 in - NNE 3.5 mph - N/A   Unknown
6:52 AM 69.1 °F - 62.1 °F 78% 29.98 in - NNE 5.8 mph - N/A   Unknown
7:52 AM 71.1 °F - 61.0 °F 70% 29.99 in - Variable 4.6 mph - N/A   Unknown
8:52 AM 73.9 °F - 62.1 °F 66% 30.00 in - ENE 5.8 mph - N/A   Unknown
9:52 AM 75.0 °F - 62.1 °F 64% 29.99 in - East 6.9 mph - N/A   Unknown
10:52 AM 79.0 °F - 64.0 °F 60% 29.99 in - East 4.6 mph - N/A   Unknown
11:52 AM 80.1 °F 81.9 °F 64.9 °F 60% 29.99 in - Variable 4.6 mph - N/A   Unknown
1:52 PM 82.9 °F 85.8 °F 68.0 °F 60% 29.96 in - NE 3.5 mph - N/A   Unknown
2:52 PM 84.9 °F 88.2 °F 68.0 °F 57% 29.94 in - Variable 4.6 mph - N/A   Unknown
3:52 PM 87.1 °F 90.6 °F 68.0 °F 53% 29.93 in - Calm Calm - N/A   Unknown
4:52 PM 86.0 °F 89.4 °F 68.0 °F 55% 29.93 in - South 3.5 mph - N/A   Unknown
5:52 PM 84.9 °F 88.2 °F 68.0 °F 57% 29.91 in - Variable 4.6 mph - N/A   Unknown
6:52 PM 84.9 °F 88.8 °F 69.1 °F 59% 29.91 in - ESE 3.5 mph - N/A   Unknown
7:52 PM 80.1 °F 83.2 °F 70.0 °F 71% 29.91 in - Calm Calm - N/A   Unknown
8:52 PM 75.0 °F - 71.1 °F 87% 29.92 in - Calm Calm - N/A   Unknown
9:52 PM 73.0 °F - 70.0 °F 90% 29.94 in - Calm Calm - N/A   Unknown
10:52 PM 73.0 °F - 69.1 °F 87% 29.94 in - Calm Calm - N/A   Unknown
11:52 PM 75.0 °F - 64.0 °F 69% 29.95 in - Calm Calm - N/A   Unknown